Location: Walton
(43.6794°N, 81.3017°W)
Time: 04:15:32
(UTC+00:00)

Daily predictions for brighter satellites

Satellite Brightness Start Highest point End
(mag) Time Altitude Azimuth Time Altitude Azimuth Time Altitude Azimuth
Meteor 1-5 Rocket 4.3 00:00:11 10° NNW 00:05:30 70° W 00:10:55 10° S
Cosmos 372 Rocket 3.8 00:02:32 10° S 00:07:35 68° ESE 00:07:35 68° ESE
Cosmos 1980 Rocket 2.0 00:03:28 10° SSW 00:09:07 77° ESE 00:10:06 60° NE
USA 81 4.0 00:07:03 10° N 00:12:20 85° W 00:17:36 10° S
NOAA 6 3.9 00:09:44 10° SSE 00:14:51 90° ENE 00:19:59 10° NNW
Cosmos 2369 4.4 00:10:08 10° S 00:14:04 39° SSE 00:14:04 39° SSE
Cosmos 1244 Rocket 4.3 00:10:51 10° N 00:17:10 77° E 00:23:21 10° SSE
YAOGAN 1 3.5 00:18:37 10° S 00:22:42 46° W 00:26:49 10° NNW
USA 238 DEB 3.4 00:18:11 10° SW 00:24:13 88° WNW 00:25:20 64° NNE
USA 238 3.4 00:18:17 10° SW 00:24:20 89° NW 00:25:24 65° NE
Cosmos 2263 Rocket 2.0 00:19:16 10° NNW 00:24:59 88° ENE 00:25:14 82° SE
USA 215 3.9 00:29:21 40° NNE 00:29:21 40° NNE 00:35:06 10° NW
Meteor 2-2 Rocket 4.2 00:25:16 10° SSW 00:30:56 81° W 00:31:31 71° NNW
Cosmos 2227 Rocket 3.3 00:30:54 10° NW 00:36:12 43° WSW 00:41:29 10° S
SL-08 R/B 4.4 00:30:22 10° N 00:36:43 89° ENE 00:43:04 10° S
BREEZE-M DEB (TANK) 4.0 00:45:16 10° WNW 00:49:52 89° SW 00:51:35 63° ESE
Cosmos 1697 Rocket 4.5 00:46:37 10° WSW 00:51:15 26° NW 00:53:21 21° NNW
Cosmos 1980 Rocket 4.3 09:04:59 19° ESE 09:04:59 19° ESE 09:06:39 10° SE
CZ-3 R/B 4.3 09:04:09 43° SW 09:05:40 44° SSW 09:16:35 10° SE
COSMOS 2455 4.2 09:12:03 34° ENE 09:12:03 34° ENE 09:16:37 10° ESE
USA 59 Rocket 2.5 09:31:36 20° E 09:31:36 20° E 09:33:32 10° ESE
USA 234 4.5 09:30:51 10° NE 09:35:12 29° N 09:35:12 29° N
Cosmos 2322 Rocket 4.4 09:52:29 12° N 09:55:56 19° NE 09:59:56 10° E
NOSS 3-1 (C) 4.3 09:58:59 38° NNW 10:01:59 62° NE 10:10:44 10° SE
Cosmos 1898 Rocket 3.7 10:06:46 65° NNE 10:07:15 69° ENE 10:12:29 10° SSE
Cosmos 2180 Rocket 4.4 10:06:08 52° NNW 10:07:49 85° W 10:14:10 10° S
IRS-1D 4.3 10:06:15 10° NNE 10:11:09 51° E 10:16:05 10° S
Cosmos 2237 4.5 10:10:43 44° N 10:12:26 65° ENE 10:18:05 10° SE
Cosmos 1726 Rocket 4.4 10:14:07 35° NNE 10:15:25 46° ENE 10:19:28 10° SSE
COSMOS 2406 3.4 10:10:00 10° SSW 10:15:36 68° ESE 10:21:15 10° NNE
Cosmos 2082 Rocket 2.3 10:24:12 53° NNW 10:24:12 53° NNW 10:28:58 10° NNE
SL-16 R/B 3.1 10:20:26 21° N 10:23:56 46° ENE 10:29:20 10° SE
Cosmos 1937 Rocket 3.5 10:28:03 41° N 10:29:53 79° ENE 10:35:00 10° SSE
Cosmos 2142 Rocket 4.5 10:29:19 51° WNW 10:30:02 54° W 10:36:01 10° SSW
Aureole 1 Rocket 4.3 10:28:36 38° NW 10:31:26 62° WSW 10:38:46 10° S
Cosmos 372 Rocket 3.9 10:31:50 59° WSW 10:31:50 59° WSW 10:36:30 10° S
SWAS 4.3 10:31:50 79° ESE 10:31:50 79° ESE 10:35:41 10° SSE
Helios 1A Rocket 3.9 10:29:18 10° SE 10:32:22 36° ENE 10:33:19 29° NE
Cosmos 1892 Rocket 3.9 10:30:24 10° S 10:34:42 64° E 10:39:03 10° NNE
SL-4 R/B 3.4 10:43:56 21° NNE 10:43:56 21° NNE 10:45:58 10° ENE
Cosmos 1980 Rocket 3.5 10:46:48 23° SW 10:46:48 23° SW 10:49:39 10° SSW
FengYun 1-2 T 4.3 10:41:39 10° N 10:47:11 56° WNW 10:52:40 10° SSW
Cosmos 2278 4.1 10:43:19 17° NNW 10:47:42 61° ENE 10:53:16 10° SE
Cosmos 1092 Rocket 4.2 10:41:54 10° S 10:48:08 71° E 10:54:21 10° NNE
NOAA 12 4.0 10:43:02 10° NNE 10:48:21 84° WNW 10:53:36 10° SSW
Cosmos-2242 4.0 10:44:41 10° N 10:48:46 45° ENE 10:52:47 10° SSE
Cosmos 489 Rocket 4.4 10:43:18 10° SSW 10:49:31 62° WNW 10:55:46 10° NNE
COSMO-SKYMED 1 2.5 10:46:05 10° SSE 10:50:11 77° ENE 10:53:04 19° N
Cosmos 1428 Rocket 4.4 10:45:32 10° SSW 10:51:41 66° W 10:57:57 10° N
Nadezhda 4 Rocket 4.0 10:45:34 10° SSW 10:51:44 55° WNW 10:57:54 10° N
Cosmos 2369 4.0 10:51:35 38° WNW 10:52:43 43° WSW 10:58:01 10° S
COSMOS 2455 3.1 10:55:14 34° WNW 10:57:11 45° WSW 11:02:50 10° S
CZ-4 R/B 3.6 10:54:36 10° N 10:59:12 64° WNW 11:03:45 10° SSW
Cosmos 2195 Rocket 4.4 10:59:59 10° SSW 11:06:10 64° W 11:12:27 10° N
Cosmos 405 Rocket 4.0 11:05:52 10° SSE 11:08:51 34° E 11:11:52 10° NNE
SKYMED 2 3.9 11:04:52 10° S 11:09:01 44° W 11:10:58 27° NW
NOSS 3-1 (A) 4.2 11:03:21 16° NNW 11:09:31 75° NE 11:18:30 10° SE
Cosmos 2058 Rocket 3.0 11:06:21 10° N 11:10:49 89° E 11:15:12 10° S
Meteor 2-2 Rocket 4.2 11:07:59 10° N 11:13:43 89° E 11:19:31 10° S
Tiangong -0.2 11:14:12 18° SW 11:14:47 18° SSW 11:17:06 10° SSE
Cosmos 2333 Rocket 2.2 11:10:36 12° NNW 11:16:01 86° ENE 11:21:46 10° SSE
Meteor 2-20 4.4 11:10:06 10° NNW 11:16:10 66° W 11:22:09 10° S
NOSS 2-1 (D) 4.4 11:15:50 27° W 11:16:50 30° WSW 11:21:14 10° S
Cosmos 2360 Rocket 2.6 11:12:12 10° NNW 11:17:47 61° ENE 11:23:19 10° SE
USA 234 4.4 11:12:49 10° ENE 11:18:15 29° N 11:22:33 15° NW
USA 59 Rocket 1.0 11:17:18 25° W 11:18:17 27° WSW 11:22:37 10° S
IGS 5A 3.6 11:16:09 10° NNE 11:20:10 73° ESE 11:24:09 10° S
Cosmos 841 Rocket 4.3 11:18:55 18° WSW 11:21:51 29° WNW 11:26:26 10° N
NOSS 2-1 (E) 4.4 11:25:21 24° W 11:26:53 31° WSW 11:31:17 10° S
Cosmos 158 Rocket 4.3 11:25:18 10° SSW 11:30:38 75° ESE 11:35:53 10° NNE
BREEZE-M DEB (TANK) 2.5 11:32:25 26° NNW 11:32:58 33° NNE 11:35:06 10° E
BREEZE-M DEB (TANK) 3.8 11:33:24 20° NW 11:34:46 32° N 11:39:26 10° ENE
Cosmos 2219 Rocket 3.0 11:30:15 10° NNW 11:35:47 51° ENE 11:41:15 10° SE
SL-08 ROCKET BODY 4.4 11:31:09 10° S 11:37:00 83° E 11:42:52 10° N
Meteor 2-20 Rocket 4.3 11:32:23 10° NNW 11:38:03 61° W 11:43:39 10° S
Cosmos 2322 Rocket 2.2 11:34:57 10° NNW 11:40:41 80° WSW 11:46:20 10° SSE
Meteor 2-6 Rocket 4.4 11:36:59 10° N 11:42:59 88° ENE 11:48:55 10° S
Cosmos 1484 Rocket 2.8 11:41:31 10° N 11:44:44 40° WNW 11:47:54 10° SW
Cosmos 1758 Rocket 3.5 11:40:29 10° S 11:44:55 84° W 11:49:20 10° N
Cosmos 1437 Rocket 4.1 11:43:15 10° N 11:46:26 34° ENE 11:49:37 10° SE
Cosmos 2151 3.2 11:49:14 10° S 11:53:17 70° E 11:57:22 10° NNE
